Location: Plateau_FTFHS
(35.6000°N, 81.3500°W)
Time: 20:46:17
(UTC-04:00)

Daily predictions for brighter satellites

Satellite Brightness Start Highest point End
(mag) Time Altitude Azimuth Time Altitude Azimuth Time Altitude Azimuth
Ariane Rocket 3.4 18:58:16 10° S 19:03:21 74° WSW 19:08:28 10° NNW
Meteor 1-11 4.5 18:59:01 10° N 19:04:48 81° W 19:10:28 10° S
Cosmos 1315 Rocket 3.3 19:02:10 10° N 19:06:03 41° ENE 19:09:57 10° SSE
Cosmos 921 Rocket 3.2 19:02:36 10° N 19:06:54 50° ENE 19:11:05 10° SSE
SKYMED 2 3.9 19:04:33 10° NNE 19:08:43 45° E 19:12:52 10° S
Cosmos 1743 Rocket 3.7 19:04:19 10° N 19:08:44 87° W 19:13:10 10° S
Cosmos 1727 Rocket 4.0 19:03:05 10° N 19:09:27 75° E 19:15:45 10° S
GP-B 3.1 19:07:22 10° N 19:11:50 79° E 19:16:15 10° S
Cosmos 1484 Rocket 3.1 19:08:35 10° S 19:12:16 67° WSW 19:15:58 10° NNW
SL-16 R/B 4.3 19:09:05 10° NW 19:14:06 33° WSW 19:19:03 10° SSW
Cosmos 1842 Rocket 4.1 19:10:29 10° SSW 19:14:55 64° W 19:19:20 10° N
Aureole 2 4.4 19:13:42 10° N 19:16:56 59° ENE 19:20:37 10° SSE
Cosmos 1626 3.0 19:15:35 10° NNW 19:19:15 55° W 19:22:53 10° S
BREEZE-M R/B 2.9 19:18:47 10° SSW 19:20:59 30° SE 19:23:15 13° ENE
Cosmos 1908 3.2 19:18:34 10° S 19:22:29 83° E 19:26:23 10° N
Cosmos 1703 3.6 19:19:06 10° NNW 19:23:00 70° W 19:26:52 10° S
Cosmos 2237 4.2 19:21:42 10° NNW 19:27:28 76° ENE 19:33:09 10° SSE
Cosmos 1269 Rocket 4.0 19:23:07 10° S 19:28:21 72° ESE 19:33:38 10° NNE
Cosmos 44 3.6 19:24:10 10° SW 19:28:29 57° WNW 19:32:45 10° NNE
MONITOR-E 4.2 19:25:29 10° SSE 19:28:30 54° ENE 19:31:31 10° N
Cosmos 1500 Rocket 4.0 19:24:31 10° NNW 19:28:49 67° W 19:33:06 10° S
Cosmos 2237 Rocket 3.6 19:25:51 10° NNE 19:29:34 17° NE 19:31:45 14° E
H-2A R/B 4.3 19:32:05 16° E 19:32:51 17° ENE 19:35:24 10° NNE
Cosmos 2227 Rocket 3.1 19:29:28 10° SSE 19:34:06 27° ESE 19:38:45 10° NE
IUS-17 SRM-1 4.4 19:33:22 10° WSW 19:35:33 16° SSW 19:37:04 10° SSE
Aureole 2 Rocket 3.5 19:32:12 10° N 19:35:49 32° ENE 19:39:29 10° SE
Molniya-1 2.6 19:34:30 10° SSW 19:35:47 35° SSE 19:35:47 35° SSE
RESURS DK-1 3.8 19:32:58 10° NW 19:36:52 42° WSW 19:40:45 10° S
Atlas Centaur 2 3.3 19:37:15 10° WSW 19:40:50 26° SSW 19:45:07 10° SE
Iridium 4 Rocket 3.7 19:35:26 10° S 19:40:56 69° E 19:46:47 10° N
SPOT 3 Rocket 3.5 19:35:53 10° SSE 19:41:03 73° ENE 19:46:16 10° N
Gbstr 26 Del rocket 4.0 19:37:59 10° NW 19:42:53 46° NE 19:47:06 18° ESE
Cosmos 1452 Rocket 4.2 19:38:03 10° NNW 19:43:13 57° WSW 19:48:20 10° S
Centaur D AC-28 4.0 19:41:28 10° S 19:44:37 19° SE 19:47:34 15° ESE
Cosmos 1300 2.9 19:42:57 10° SSE 19:46:35 44° E 19:50:14 10° NNE
Cosmos 494 Rocket 4.3 19:42:12 10° S 19:46:56 39° E 19:51:39 10° NE
Cosmos 2360 Rocket 3.5 19:44:38 10° NW 19:49:57 43° WSW 19:55:15 10° S
Sich 1 3.4 19:47:44 10° N 19:51:53 40° E 19:56:02 10° SSE
CZ-4C R/B 2.8 19:49:51 10° SW 19:54:51 54° NW 20:00:31 10° NNE
Cosmos 2098 Rocket 3.5 19:51:49 10° S 19:56:18 83° W 20:02:06 10° N
COSMO-SKYMED 1 3.7 19:52:34 10° N 19:56:44 46° WNW 20:00:53 10° SSW
Cosmos 1110 Rocket 4.5 19:53:50 10° N 19:58:47 38° ENE 20:01:18 24° ESE
FENGYUN 3A 3.6 19:54:17 10° SSE 19:59:39 76° ENE 20:05:04 10° N
COSMOS 2428 2.8 19:58:32 10° NNW 20:04:14 79° WSW 20:09:54 10° SSE
Cosmos 2219 4.0 19:59:13 10° SW 20:04:49 54° WNW 20:10:26 10° NNE
Cosmos 1535 Rocket 4.4 19:59:45 10° S 20:05:53 88° W 20:12:01 10° N
Cosmos 2333 Rocket 2.3 20:01:29 10° NNW 20:07:08 55° ENE 20:11:07 19° SE
Cosmos 1805 Rocket 3.6 20:03:36 10° N 20:08:00 80° W 20:12:25 10° S
Meteor 2-10 3.8 20:03:26 10° S 20:08:27 80° E 20:13:34 10° N
Hubble Space Telescope 2.2 20:05:57 10° SW 20:09:21 25° S 20:10:06 23° SSE
Cosmos 2228 Rocket 4.2 20:05:51 10° SSE 20:08:22 27° SE 20:08:22 27° SE
Cosmos 2297 Rocket 2.4 20:05:48 10° S 20:11:10 47° ESE 20:14:04 26° NE
PSLV R/B 3.4 20:08:47 10° W 20:11:50 54° NNW 20:12:00 53° N
Cosmos 1666 Rocket 3.3 20:13:05 10° N 20:17:26 80° E 20:21:44 10° S
Cosmos 1726 3.7 20:14:44 10° SSW 20:18:10 36° W 20:21:37 10° N
Cosmos 1328 Rocket 3.5 20:13:58 10° S 20:18:16 57° E 20:19:44 37° NE
Cosmos 2082 3.7 20:16:00 10° S 20:21:36 58° ESE 20:24:19 30° NE
Cosmos 1633 Rocket 2.9 20:17:41 10° N 20:22:07 73° E 20:24:47 23° SSE
Cosmos 2251 Rocket 3.4 20:17:14 10° S 20:22:26 64° ESE 20:25:26 26° NNE
DELTA 2 R/B (1) 4.4 20:25:27 10° WNW 20:30:45 46° SSW 20:33:03 30° SSE
FengYun 1-2 T 4.1 20:28:00 10° SSE 20:33:30 88° E 20:39:01 10° NNW
Cosmos 1934 Rocket 4.5 20:27:39 10° SSW 20:33:56 62° W 20:40:16 10° N
Meteor 2-2 Rocket 4.3 20:30:22 10° S 20:36:04 80° W 20:41:44 10° N
Cosmos 2219 Rocket 2.4 20:31:08 10° NNW 20:36:42 68° WSW 20:41:34 14° S
ALOS 3.7 20:34:03 10° SSW 20:38:21 37° W 20:42:41 10° NNW
OAO 1 Rocket 4.3 20:35:03 10° W 20:40:21 75° S 20:40:46 70° SSE
Cosmos 2084 4.1 20:38:11 10° NW 20:40:52 44° NW 20:40:52 44° NW
Delta 2 Rocket 4.4 20:38:56 10° W 20:41:39 36° WSW 20:41:39 36° WSW
Thor Agena Rocket 4.4 20:39:26 10° N 20:44:19 48° WNW 20:49:08 10° SW
USA 267 3.2 20:48:33 59° ESE 20:49:08 62° SE 20:55:35 10° SSW
Cosmos 1331 Rocket 4.0 20:47:01 10° NNW 20:52:13 75° WSW 20:52:43 69° SSW
Meteor 1-27 4.1 20:48:41 10° S 20:54:23 87° E 21:00:12 10° N
BREEZE-M DEB (TANK) 3.7 20:53:21 10° NW 21:04:20 56° N 21:04:20 56° N
MOS 1-B Rocket 3.9 21:06:25 70° NNW 21:06:25 70° NNW 21:11:46 10° NNW
Cosmos 2237 Rocket 2.6 21:08:26 10° NNW 21:13:39 61° W 21:13:39 61° W
Cosmos 2227 Rocket 3.5 21:12:45 10° SW 21:17:56 36° WNW 21:21:11 20° N
SL-16 R/B 4.0 21:21:22 10° NNW 21:23:15 22° N 21:23:15 22° N
Cosmos 2297 Rocket 4.3 21:51:08 10° WSW 21:55:26 22° WNW 21:56:00 22° NW
